RH
98 99 100 97 100 100 97 98 99 100 99 98 96 100 98 98 97 99 98 99 99 99 97 98 98 99 99 99 98 93 95 95 99 99 94 98 90 94 100 93 81 98 100 100 98 80 48 33 25 22 22 20 19 17
96 99 96 98 98 99 98 96 97 97 100 100 99 97 98 96 97 100 99 100 99 98 98 96 93 100 99 98 99 98 97 100 99 96 91 99 95 99 98 80 100 100 100 100 92 56 37 28 24 23 21 18 17 16
82 77 93 96 97 96 97 95 100 92 96 98 98 97 92 96 95 98 98 98 99 99 97 95 95 99 96 96 99 99 99 100 96 100 100 99 96 99 92 100 100 100 100 92 75 53 30 27 25 23 19 16 15 15
39 34 50 35 19 30 68 94 91 92 95 74 82 88 94 70 68 71 84 97 98 96 97 92 90 82 85 84 75 72 86 96 95 82 68 88 98 93 95 100 100 98 94 91 56 34 29 29 26 22 21 19 16 14
33 33 32 27 14 9 9 10 13 13 21 36 21 24 27 38 27 34 56 44 82 76 81 75 54 43 34 31 37 28 41 56 41 60 75 97 100 99 100 100 100 97 96 67 40 31 29 27 25 22 22 19 16 13
24 20 14 13 11 8 8 9 10 11 15 15 15 16 19 23 19 23 21 17 19 21 14 9 12 15 16 18 21 18 18 48 64 72 100 100 100 93 95 100 100 96 83 54 36 31 27 23 24 23 22 19 14 9
9 8 8 8 8 8 8 8 8 10 15 15 12 12 15 19 21 20 19 18 16 15 13 11 11 11 18 24 24 40 47 70 87 100 100 100 100 90 99 100 99 96 69 42 34 29 25 24 23 23 20 16 9 20
10 10 9 9 8 8 7 7 9 14 18 17 21 20 22 21 20 19 17 15 13 12 13 12 12 17 19 37 82 87 97 100 100 100 100 99 95 100 100 100 97 85 49 37 29 25 24 23 24 22 17 10 16 48
5 5 6 6 7 6 9 10 10 16 18 18 18 15 15 15 14 12 11 10 9 9 8 8 8 15 20 27 42 82 90 84 93 100 92 95 100 100 100 97 91 67 47 33 28 28 27 26 23 16 11 16 49 64
7 6 6 5 6 7 8 11 14 15 14 10 10 10 10 10 8 8 8 7 7 7 7 7 11 13 29 52 82 76 55 82 100 100 100 100 100 100 98 94 90 65 37 30 29 30 30 23 15 14 40 58 64 74
7 6 6 6 6 6 5 9 11 12 10 10 9 9 8 7 7 7 7 7 7 8 8 11 23 36 42 57 94 76 98 100 99 96 100 98 100 98 97 96 68 39 32 28 29 30 28 22 14 14 57 72 82 87
4 3 3 3 3 3 3 4 5 5 5 6 6 6 6 7 6 6 6 7 7 10 12 22 33 66 83 95 95 95 100 93 93 99 100 100 100 99 97 68 41 32 30 30 31 28 22 16 10 42 67 78 85 88
6 4 4 4 3 3 4 5 5 5 5 5 6 5 7 9 12 11 12 21 51 58 65 79 94 95 99 100 100 100 100 100 100 96 100 100 99 95 63 41 34 32 33 31 29 23 16 10 30 65 79 80 78 85
22 26 53 20 6 7 57 91 78 97 100 93 60 35 40 35 38 51 77 88 84 91 93 91 96 99 100 100 100 100 99 99 98 100 100 93 72 48 37 35 35 34 33 30 23 15 10 21 74 76 80 74 73 82
76 100 89 100 100 100 100 99 95 100 100 97 100 100 93 98 100 98 100 100 100 100 100 100 100 100 100 100 100 100 100 98 100 97 77 52 41 39 38 37 37 35 31 24 17 10 11 72 84 90 85 83 87 88
100 100 100 100 100 100 100 100 89 99 100 100 100 98 98 100 100 100 100 100 100 100 100 100 100 100 100 100 100 100 100 95 75 52 44 41 39 38 38 37 35 31 25 17 10 9 52 93 94 99 94 99 95 82
100 100 100 100 99 100 100 100 100 100 100 100 100 100 100 100 100 100 100 100 100 100 99 100 100 100 100 100 100 86 63 51 47 42 40 38 36 35 33 32 29 22 15 10 10 22 92 100 99 98 99 100 93 96
100 100 100 99 100 99 100 100 100 100 100 100 100 100 100 100 100 100 100 100 100 100 100 100 100 99 88 64 51 47 42 41 39 36 34 32 31 29 26 21 16 12 10 11 14 64 100 100 100 100 100 100 100 94
100 98 96 96 97 100 100 100 100 100 100 100 100 100 100 100 100 100 100 100 100 100 97 81 56 45 41 39 38 37 34 32 32 31 30 28 24 19 14 12 10 10 10 26 32 96 100 100 100 99 100 100 98 96
100 99 99 100 98 96 98 99 100 100 100 100 100 100 100 100 100 100 99 92 71 53 46 43 39 37 36 36 35 34 34 34 32 29 23 18 14 11 10 10 10 11 31 45 77 100 100 100 100 100 100 100 100 100
100 100 100 100 100 100 100 100 100 100 100 100 100 100 100 99 96 79 61 55 46 39 36 34 32 32 33 35 36 35 34 30 25 20 16 12 11 11 11 13 24 65 66 78 100 100 100 100 100 100 100 100 100 100
99 100 100 100 100 100 100 100 100 100 100 100 96 92 76 61 48 38 34 29 26 26 26 26 28 31 34 34 33 28 23 18 14 12 11 12 15 27 60 89 98 93 100 100 100 100 100 100 100 100 100 100 100 100
100 100 100 100 100 100 100 100 99 99 97 80 61 52 46 41 37 34 30 29 28 29 31 32 32 31 29 23 17 14 13 13 14 16 17 43 83 98 100 100 100 100 100 100 100 100 100 100 100 100 100 100 99 99
100 100 100 100 100 100 95 99 93 78 68 61 54 47 42 39 36 33 31 30 30 30 29 25 19 15 14 13 14 14 16 20 21 28 73 98 100 100 100 100 100 100 100 100 100 100 100 100 100 100 100 100 96 76
100 100 100 100 100 100 100 93 76 66 60 55 50 46 44 38 36 34 33 31 27 21 16 13 13 14 15 16 17 18 22 24 29 82 98 100 100 100 100 100 100 100 100 100 100 100 100 100 100 100 100 100 100 97
100 100 100 100 99 99 93 80 71 66 61 57 52 46 42 39 36 33 27 20 16 15 14 14 16 18 19 18 19 21 24 26 50 94 100 100 100 100 100 100 100 100 100 100 100 100 100 100 100 100 100 100 100 100
100 100 100 96 90 84 78 75 69 64 60 56 51 46 42 37 30 22 20 18 19 20 21 22 24 26 28 30 27 24 25 27 61 97 100 100 100 100 100 100 100 100 100 100 100 100 100 100 100 100 100 100 100 100
99 100 94 86 79 73 76 72 72 71 64 57 51 42 35 26 22 23 27 27 26 24 24 29 37 46 49 50 47 38 30 30 58 97 100 100 100 100 100 100 100 100 100 100 100 100 100 100 100 100 100 100 100 100
96 92 86 81 84 86 86 83 77 68 59 50 39 28 24 24 27 32 32 28 25 23 22 23 30 42 57 66 65 60 49 39 48 90 100 100 100 100 100 100 100 100 100 100 100 100 100 100 100 100 100 100 100 100
100 94 93 94 94 94 86 78 67 57 46 33 27 30 30 30 36 38 30 28 26 24 23 23 24 30 43 54 68 75 69 52 41 63 94 100 100 100 100 100 100 100 100 100 100 100 100 100 100 100 100 100 100 100
100 100 100 100 98 86 78 65 57 44 32 32 33 32 30 32 42 38 31 29 31 30 25 22 23 26 30 38 51 56 60 59 49 44 63 93 100 100 100 100 100 100 100 100 100 100 100 100 100 100 100 100 100 100
100 100 99 94 85 80 69 45 40 35 32 30 30 30 32 36 46 44 33 32 38 42 37 29 25 26 30 33 36 46 58 62 55 50 46 53 75 96 100 100 100 100 100 100 100 100 100 100 100 100 100 100 100 97
100 97 93 93 92 83 52 39 36 34 33 32 34 34 35 41 53 49 35 32 40 46 43 41 29 26 30 35 37 39 42 56 71 78 73 58 49 48 53 70 90 98 99 100 100 100 100 100 100 100 99 97 92 88
Wind_Speed
56 63 65 64 64 58 52 49 46 46 47 51 47 40 38 46 52 51 51 50 46 48 48 49 52 52 52 49 47 50 51 51 40 34 38 33 34 34 39 36 41 47 47 44 42 41 41 41 42 44 47 49 48 49
50 64 61 67 61 55 59 54 53 51 46 43 50 53 53 46 50 46 53 55 58 63 61 65 61 62 64 60 56 55 50 34 35 42 35 38 43 45 35 40 46 45 45 43 39 40 41 42 43 47 49 49 50 51
58 57 56 53 54 65 57 60 61 64 57 56 48 51 47 54 52 49 52 53 56 63 63 63 65 62 67 67 56 47 35 35 36 32 44 43 45 43 39 46 47 45 42 39 38 41 42 43 46 49 49 50 52 55
66 64 63 62 60 58 59 58 59 58 59 59 55 55 56 57 53 55 59 56 61 61 61 60 65 66 67 67 67 58 49 51 59 53 51 47 44 37 43 49 46 40 38 37 37 40 43 46 49 49 49 52 55 58
69 70 68 66 67 66 65 63 62 62 59 61 59 56 58 61 59 59 60 63 65 64 65 67 68 66 68 65 63 61 54 58 50 45 44 48 44 41 45 46 39 38 35 36 39 41 44 48 49 50 50 52 56 58
74 72 71 71 70 69 69 67 66 63 60 61 61 62 59 61 63 64 64 64 64 66 67 65 65 65 64 64 62 59 54 48 41 39 45 47 42 44 47 40 38 34 35 37 41 43 46 47 49 50 51 53 57 55
73 74 75 73 70 70 70 69 70 67 64 63 65 65 65 63 63 64 65 64 63 63 62 62 61 59 56 55 53 50 49 46 41 42 44 45 44 49 43 38 34 33 35 39 41 44 46 49 49 49 52 55 56 40
72 72 73 71 68 65 66 67 65 63 63 63 60 61 61 62 63 63 62 60 59 60 60 61 59 55 53 49 48 48 46 43 41 42 43 48 47 43 38 35 33 33 38 41 43 45 48 49 48 50 53 56 42 33
66 65 63 63 63 63 61 60 60 60 60 59 57 59 61 61 61 59 58 57 56 55 55 54 53 50 49 51 52 49 47 46 46 45 45 43 40 37 34 32 31 34 40 43 44 47 48 47 48 51 51 46 36 31
53 54 55 56 56 56 57 56 56 56 54 55 57 58 57 56 55 54 54 54 54 55 53 50 48 49 48 47 49 49 47 42 41 42 41 37 34 32 30 31 33 38 41 43 44 45 44 46 47 42 37 36 33 28
48 48 48 49 49 50 52 53 54 55 57 58 56 56 54 52 52 52 52 54 54 52 51 47 45 44 44 43 42 42 39 40 43 39 36 33 27 28 29 32 36 39 42 44 42 41 43 46 47 40 33 33 29 26
44 45 44 46 46 46 48 50 51 52 50 48 48 47 47 47 47 48 48 46 44 43 41 41 40 40 41 40 40 40 40 40 35 32 31 27 27 28 30 35 38 41 42 41 40 42 44 45 41 33 30 27 25 20
40 41 40 41 42 41 41 41 43 43 43 43 44 44 42 41 42 42 39 36 36 36 35 36 36 36 35 34 33 35 36 33 31 30 26 25 27 30 34 37 39 40 40 41 41 42 42 40 32 29 27 23 21 19
31 29 29 32 31 25 25 29 31 32 33 33 32 31 31 32 31 30 30 31 32 31 32 32 33 33 32 33 32 30 30 28 28 24 24 28 31 34 36 37 38 39 40 42 42 41 37 28 25 26 22 19 19 20
22 18 19 18 21 26 24 18 16 18 19 19 20 22 22 23 25 28 30 31 32 33 33 32 31 29 27 24 23 24 25 25 24 27 29 31 34 35 36 37 38 39 41 42 40 35 28 21 21 22 21 20 21 21
19 18 23 29 25 28 25 23 23 22 27 30 30 30 30 30 30 31 33 33 31 28 24 22 20 20 21 23 22 23 24 25 27 30 32 34 35 35 36 38 40 41 42 39 33 28 19 16 18 17 15 16 16 14
23 22 23 24 25 26 26 26 27 29 30 31 31 32 34 35 34 28 25 21 18 15 15 16 18 21 21 21 21 24 26 28 30 32 33 34 35 37 39 41 43 41 38 33 28 19 14 13 13 13 13 13 14 16
22 23 25 26 27 27 28 30 31 33 34 32 29 28 25 23 19 15 13 13 13 15 17 18 19 19 20 22 25 27 29 30 32 34 35 37 39 41 43 43 40 36 31 26 22 15 13 10 11 11 10 11 13 14
16 17 18 20 22 23 24 24 24 24 23 22 20 17 14 13 12 11 12 14 15 15 15 17 19 21 24 26 27 28 30 33 36 37 39 40 41 42 41 39 34 29 24 21 17 14 13 10 12 13 11 11 12 13
14 14 14 14 14 13 13 12 13 14 13 14 14 11 9 9 11 13 11 11 12 14 17 20 23 25 28 30 33 35 37 38 40 41 41 41 40 38 35 31 27 23 19 19 16 15 14 12 12 12 10 11 12 11
15 14 14 13 14 14 14 14 14 13 10 8 8 9 9 8 8 11 13 15 18 21 23 26 30 32 35 36 38 40 41 41 41 41 39 37 34 30 26 22 19 18 19 15 15 15 15 12 11 11 10 8 7 7
13 14 14 13 13 14 13 12 9 6 6 5 6 6 8 10 12 14 16 19 23 26 29 31 34 36 38 39 40 40 40 39 37 34 30 26 23 20 17 15 15 14 13 13 14 15 14 13 11 9 9 6 1 0
12 13 14 14 14 13 9 7 6 6 6 6 7 9 11 14 17 20 23 26 28 30 32 34 36 37 38 38 37 35 33 30 26 23 21 19 16 14 13 12 12 12 12 13 13 14 14 14 11 9 9 8 5 3
10 13 14 12 9 6 5 5 6 6 7 9 12 15 18 21 24 28 30 32 32 33 34 35 35 34 32 30 28 26 23 21 20 18 16 14 13 12 12 12 13 12 12 12 13 13 13 14 12 10 9 10 9 8
12 12 10 7 6 7 7 6 8 10 12 15 18 21 25 27 30 32 33 34 34 33 32 30 29 27 25 23 21 20 18 17 16 15 12 10 10 10 11 11 10 10 11 12 12 13 13 13 12 11 10 10 12 12
12 10 8 7 7 7 9 12 14 17 19 22 25 28 31 32 33 33 32 31 29 28 27 26 25 24 22 21 19 17 16 16 14 12 10 9 9 9 10 10 10 10 10 11 12 12 13 13 12 11 11 11 11 12
11 11 10 10 11 12 15 18 21 24 26 28 31 33 33 32 31 28 26 23 20 20 21 21 21 20 20 19 18 17 16 15 13 11 10 10 10 10 10 10 10 10 11 11 12 12 12 12 13 12 12 12 12 12
12 11 12 14 16 19 21 24 27 29 31 33 34 32 31 28 23 17 11 10 11 14 16 16 15 15 14 15 16 16 16 15 14 13 13 12 11 10 10 11 10 11 11 12 12 12 13 13 13 13 13 14 14 14
14 16 17 19 22 24 27 29 32 33 33 32 31 29 23 19 14 10 9 10 11 13 14 15 16 14 12 11 11 13 15 16 15 15 15 14 13 12 12 12 12 12 13 13 13 13 14 13 14 14 14 15 15 15
23 23 24 25 27 30 32 33 31 32 32 29 25 21 17 14 12 10 8 8 10 11 13 14 14 15 13 11 10 11 13 14 15 16 17 17 16 15 14 14 14 14 14 14 14 14 15 15 15 15 15 16 16 17
28 29 29 31 33 33 33 33 31 29 26 22 20 17 15 13 13 11 8 5 7 11 14 15 15 15 14 12 10 10 12 13 14 15 17 18 19 18 17 17 16 16 16 16 16 16 16 16 16 16 17 17 18 19
29 30 31 32 32 32 33 31 26 22 21 19 17 15 13 13 14 12 11 7 6 11 15 16 16 16 14 13 12 11 11 11 12 13 16 18 20 21 20 20 19 19 18 18 18 18 19 19 19 19 19 20 20 21
31 31 30 30 31 32 30 27 23 21 19 16 13 13 13 14 14 13 12 10 6 9 14 17 18 17 16 16 14 13 13 12 12 13 14 15 17 19 21 22 23 23 23 22 22 22 22 21 22 22 22 22 23 23
Wind_Direction
232 235 237 237 239 241 240 237 241 250 257 255 253 251 255 261 256 264 264 264 273 274 273 272 273 275 280 278 284 288 294 302 298 297 320 302 313 306 296 299 298 295 297 299 300 304 306 307 310 312 311 313 313 310
253 232 242 232 234 239 239 238 238 241 244 255 255 253 250 254 256 266 262 260 264 266 275 277 274 277 280 284 287 288 302 293 290 315 327 293 301 296 294 296 292 294 296 299 303 305 305 308 310 311 313 312 310 310
249 253 258 259 248 253 247 249 246 243 253 258 274 268 268 263 258 257 262 258 267 270 270 278 279 282 284 283 294 306 292 291 311 306 310 308 303 293 292 290 293 294 296 300 302 303 306 310 310 311 312 311 311 311
244 248 252 254 256 259 263 267 270 272 274 277 276 276 276 279 280 278 277 272 272 279 276 281 285 290 289 293 300 301 292 294 306 311 305 299 293 290 293 293 293 293 296 300 303 305 309 309 310 311 312 313 312 313
246 247 250 253 256 258 259 261 261 263 264 268 267 267 270 276 273 271 271 277 278 279 280 282 283 282 286 291 296 299 295 298 301 301 295 286 280 288 295 293 289 293 299 301 303 306 308 309 309 311 312 311 312 313
247 250 252 253 254 255 257 261 264 266 264 265 264 265 266 266 268 269 270 273 276 276 277 279 282 285 287 288 290 292 294 296 297 292 281 285 284 295 296 290 290 295 299 301 303 306 309 308 308 310 311 311 313 314
246 248 251 253 256 258 260 261 262 263 263 264 266 269 267 265 267 270 271 273 273 275 278 279 281 285 286 288 288 289 291 293 289 281 282 281 291 297 293 287 290 295 298 300 303 308 309 310 312 312 313 314 314 315
245 248 250 252 254 255 257 258 259 260 261 263 264 264 265 267 267 268 269 271 273 276 278 281 283 284 285 285 285 287 288 290 285 282 282 287 291 291 287 286 290 296 299 302 305 307 309 310 313 313 314 314 318 314
244 246 248 249 250 252 253 255 257 258 259 261 263 263 264 264 265 268 270 271 272 274 276 279 281 280 280 280 281 286 290 286 284 284 288 290 290 284 283 287 294 297 300 303 307 310 311 314 314 314 316 316 318 313
241 244 246 248 249 250 250 251 253 256 258 258 258 260 263 265 267 268 269 270 271 273 276 278 279 278 279 279 282 287 287 283 283 288 288 286 285 282 286 292 294 296 300 304 308 310 313 314 314 316 313 310 314 314
241 242 244 244 245 248 250 251 252 253 253 256 260 262 265 267 268 269 270 271 272 273 275 277 277 277 278 280 282 284 282 282 286 286 284 283 279 282 286 292 296 299 303 305 308 311 312 313 313 316 312 313 313 310
234 236 238 240 241 242 244 244 246 249 253 257 259 259 261 262 264 267 269 273 275 276 279 277 277 277 278 277 278 279 281 285 285 282 279 278 278 283 292 295 299 301 304 306 309 311 313 314 316 314 314 314 312 311
229 231 232 234 236 239 242 245 247 249 252 253 255 258 260 262 262 266 271 273 273 275 275 276 276 277 279 278 279 280 280 279 276 277 278 279 284 291 294 296 300 302 304 306 308 311 313 315 314 315 318 318 314 320
231 234 238 242 241 234 228 236 241 241 246 250 251 251 252 258 264 269 271 273 275 277 279 277 277 276 276 279 278 275 275 275 275 278 281 285 290 293 295 298 300 302 304 305 308 312 313 312 311 315 320 319 320 317
209 217 214 202 197 197 204 209 214 220 223 233 241 246 251 258 263 269 274 275 275 274 274 276 277 276 275 273 272 273 271 272 276 283 287 292 293 296 298 299 300 300 301 304 308 309 310 307 311 319 320 324 328 324
208 209 208 213 211 213 220 222 224 234 247 248 252 257 260 265 267 270 273 273 272 271 270 268 267 270 268 267 265 268 274 283 286 290 291 294 296 297 298 297 297 299 301 303 304 306 300 301 313 319 324 336 332 331
204 201 204 210 213 215 220 227 233 239 245 250 256 261 262 265 265 264 261 260 257 255 260 263 263 261 265 270 279 284 286 288 289 292 293 294 296 296 295 295 296 298 299 300 300 293 285 289 307 318 331 339 343 336
198 204 210 214 217 223 229 232 237 240 244 246 248 249 250 249 247 243 242 247 253 257 258 259 264 274 281 286 286 288 289 290 291 292 293 293 294 293 293 294 296 296 295 291 294 274 266 271 295 312 332 340 344 342
200 208 216 223 228 230 228 229 234 236 236 238 236 230 225 221 225 237 248 254 257 266 278 285 286 288 288 287 288 290 291 290 289 289 290 290 292 293 293 294 293 291 285 285 273 252 250 259 287 296 308 326 327 329
201 206 211 213 214 214 212 205 203 203 199 199 200 203 215 233 245 250 259 275 284 287 290 293 294 293 291 289 288 287 287 288 289 290 292 293 293 291 290 289 286 281 276 286 246 243 241 256 277 283 292 303 305 315
194 199 198 193 188 185 180 176 176 174 177 196 215 228 239 255 271 275 279 286 291 293 294 293 292 291 290 289 288 289 289 290 291 293 293 292 290 289 286 279 274 276 282 250 240 236 237 250 273 279 285 288 295 301
193 189 185 178 173 172 169 169 169 185 210 230 248 260 266 270 278 285 292 294 294 294 293 292 291 290 290 289 289 289 290 291 292 293 292 291 288 283 276 269 268 273 257 247 237 234 237 248 259 265 272 257 218 151
175 177 175 173 173 172 173 185 208 219 227 240 256 270 278 283 290 296 299 300 298 296 294 292 291 289 288 289 289 289 290 292 293 294 293 287 278 268 263 260 262 262 256 243 236 236 240 248 246 246 252 232 208 176
188 181 173 172 174 179 197 215 230 247 265 280 287 291 293 295 299 301 300 300 298 296 294 291 290 290 290 290 290 290 289 289 291 292 286 275 266 264 263 260 254 253 252 245 239 238 240 247 242 238 242 233 216 208
190 185 186 191 206 221 233 261 282 289 292 294 296 298 301 305 304 303 302 301 300 297 296 295 294 293 291 289 288 286 281 281 284 280 271 264 265 268 265 258 251 250 250 248 244 244 244 244 239 236 236 237 234 222
205 204 210 225 248 263 278 291 295 299 302 304 305 307 308 307 306 303 303 303 301 300 300 297 294 290 284 279 279 277 273 274 270 264 260 261 267 268 262 256 251 249 249 248 246 245 245 245 241 238 240 240 238 240
221 225 236 253 272 282 292 297 301 304 306 307 309 309 307 305 304 306 304 304 307 310 308 304 297 289 279 271 267 265 265 266 260 252 251 258 265 267 265 259 254 252 252 250 249 248 247 247 248 246 244 245 246 244
239 257 271 277 288 294 299 301 303 305 307 308 307 306 305 304 301 297 292 308 324 336 343 339 324 310 296 279 265 258 256 258 253 247 246 251 260 264 263 263 262 260 258 256 255 252 249 247 248 251 253 252 250 249
281 285 288 292 296 299 300 301 303 305 306 306 304 302 299 294 284 258 282 308 322 329 330 339 346 334 315 298 279 263 255 252 248 244 244 246 252 259 263 263 262 263 263 262 261 260 258 256 255 255 256 258 259 259
285 288 290 292 293 295 299 302 306 305 302 299 297 293 289 275 255 255 275 300 319 329 339 343 339 343 340 318 293 273 263 258 253 245 244 246 250 254 259 263 264 264 263 262 261 262 262 262 263 264 265 266 267 267
278 280 282 287 291 294 297 301 303 302 298 295 293 290 278 264 242 247 257 286 335 346 350 347 340 338 333 334 323 298 281 271 262 254 249 249 251 254 257 260 265 267 267 267 266 264 263 264 265 267 269 269 270 271
272 277 284 288 292 297 303 307 305 299 296 295 290 276 268 250 238 245 252 261 306 329 337 344 344 341 334 327 318 314 304 288 277 270 263 257 254 255 257 259 261 263 265 267 268 268 268 268 268 268 269 271 272 273
279 283 286 291 296 300 303 306 302 298 294 289 276 267 265 241 238 242 249 253 273 314 328 335 343 342 338 333 324 316 305 297 292 283 275 268 265 263 262 261 261 262 263 265 266 268 269 270 271 272 274 277 279 280